Weather History for Midland, MI

Change the Weather History Date:

Friday, November 1, 2013

  Actual Average (KMBS) Record (KMBS)
Temperature  
Mean Temperature 54 °F 44 °F  
Max Temperature 61 °F 53 °F 72 °F (1999)
Min Temperature 46 °F 36 °F 26 °F (2006)
Degree Days  
Heating Degree Days 12    
Month to date heating degree days  
Since 1 July heating degree days  
Cooling Degree Days 0    
Month to date cooling degree days  
Year to date cooling degree days  
Growing Degree Days 4 (Base 50)    
Moisture  
Dew Point 47 °F    
Average Humidity 89    
Maximum Humidity 98    
Minimum Humidity 77    
Precipitation  
Precipitation 0.05 in 0.10 in 0.61 in (1997)
Month to date precipitation 0.10  
Year to date precipitation 27.08  
Snow  
Snow 0.00 in - - ()
Month to date snowfall  
Since 1 July snowfall  
Since 1 September snowfall  
Snow Depth -    
Sea Level Pressure  
Sea Level Pressure 29.39 in    
Wind  
Wind Speed 12 mph (WSW)    
Max Wind Speed 23 mph    
Max Gust Speed 38 mph    
Visibility 9 miles    
Events Rain    
T = Trace of Precipitation, MM = Missing Value Source: NWS Daily Summary

Daily Weather History Graph

Daily Weather History Graph

Search for Another Location

Airport:

Trip Planner

Search our weather history database for the weather conditions in past years. The results will help you decide how hot, cold, wet, or windy it might be!

Date:

Astronomy

Nov. 01, 2013 Rise Set
Actual Time 8:13 AM EDT 6:27 PM EDT
Civil Twilight 7:43 AM EDT 6:57 PM EDT
Nautical Twilight 7:09 AM EDT 7:31 PM EDT
Astronomical Twilight 6:35 AM EDT 8:04 PM EDT
Moon 6:01 AM EDT (11/1) 5:22 PM EDT (11/1)
Length of Visible Light 11h 14m
Length of Day
10h 14m
Waning Crescent, 4% of the Moon is Illuminated
Nov 1
Waning Crescent
Nov 3
New
Nov 10
First Quarter
Nov 17
Full
Nov 25
Last Quarter

Hourly Weather History & Observations

Time (EDT) Temp. Dew Point Humidity Pressure Visibility Wind Dir Wind Speed Gust Speed Precip Events Conditions
12:14 AM 61.2 °F 60.3 °F 97% 29.03 in 7.0 mi SSW 10.4 mph 17.3 mph N/A   Light Drizzle
12:34 AM 61.3 °F 60.3 °F 96% 29.03 in 4.0 mi SSW 11.5 mph 21.9 mph N/A   Drizzle
12:53 AM 60.4 °F 58.6 °F 94% 29.02 in 7.0 mi West 15.0 mph 25.3 mph N/A Rain Light Rain
1:14 AM 58.1 °F 56.5 °F 94% 29.04 in 10.0 mi West 11.5 mph 20.7 mph N/A   Light Drizzle
1:34 AM 57.7 °F 56.5 °F 96% 29.06 in 10.0 mi WSW 11.5 mph 17.3 mph N/A   Overcast
1:53 AM 57.6 °F 55.9 °F 94% 29.06 in 10.0 mi WSW 13.8 mph 18.4 mph N/A   Overcast
2:14 AM 57.4 °F 55.2 °F 92% 29.06 in 10.0 mi WSW 15.0 mph 25.3 mph N/A   Overcast
2:34 AM 56.3 °F 54.7 °F 94% 29.05 in 5.0 mi WSW 11.5 mph 16.1 mph N/A   Drizzle
2:53 AM 55.8 °F 54.5 °F 96% 29.05 in 7.0 mi WSW 15.0 mph 21.9 mph N/A   Light Drizzle
3:14 AM 55.4 °F 53.8 °F 94% 29.06 in 7.0 mi WSW 17.3 mph 24.2 mph N/A Rain Light Rain
3:34 AM 54.5 °F 53.2 °F 96% 29.09 in 7.0 mi WSW 15.0 mph 24.2 mph 0.01 in Rain Light Rain
3:53 AM 53.4 °F 52.3 °F 96% 29.10 in 10.0 mi WSW 23.0 mph 29.9 mph 0.02 in Rain Light Rain
4:14 AM 52.7 °F 51.3 °F 95% 29.13 in 10.0 mi WSW 19.6 mph 33.4 mph 0.01 in Rain Light Rain
4:34 AM 51.1 °F 50.0 °F 96% 29.14 in 5.0 mi WSW 19.6 mph 28.8 mph 0.02 in   Light Drizzle
4:53 AM 50.9 °F 48.6 °F 92% 29.16 in 10.0 mi WSW 20.7 mph 31.1 mph 0.02 in   Overcast
5:14 AM 50.5 °F 47.5 °F 89% 29.18 in 10.0 mi WSW 16.1 mph 27.6 mph N/A   Overcast
5:33 AM 50.0 °F 47.1 °F 90% 29.19 in 10.0 mi WSW 16.1 mph 27.6 mph 0.01 in   Overcast
5:54 AM 49.5 °F 46.9 °F 91% 29.20 in 10.0 mi WSW 15.0 mph 26.5 mph 0.01 in Rain Light Rain
6:14 AM 49.1 °F 46.2 °F 90% 29.22 in 10.0 mi WSW 18.4 mph 38.0 mph N/A Rain Light Rain
6:33 AM 49.1 °F 45.9 °F 89% 29.24 in 10.0 mi WSW 19.6 mph 29.9 mph N/A   Overcast
6:54 AM 48.2 °F 45.5 °F 90% 29.24 in 10.0 mi WSW 17.3 mph 26.5 mph N/A   Overcast
7:13 AM 48.2 °F 45.1 °F 89% 29.26 in 10.0 mi WSW 23.0 mph 28.8 mph N/A   Overcast
7:34 AM 48.4 °F 44.6 °F 87% 29.28 in 10.0 mi WSW 19.6 mph 32.2 mph N/A   Overcast
7:54 AM 48.2 °F 44.6 °F 87% 29.30 in 10.0 mi WSW 15.0 mph 28.8 mph N/A   Overcast
8:13 AM 48.2 °F 43.7 °F 84% 29.32 in 10.0 mi WSW 18.4 mph 28.8 mph N/A   Overcast
8:34 AM 48.2 °F 43.7 °F 84% 29.33 in 10.0 mi WSW 16.1 mph 24.2 mph N/A   Overcast
8:54 AM 48.2 °F 43.7 °F 84% 29.35 in 10.0 mi WSW 11.5 mph 19.6 mph N/A   Overcast
9:13 AM 47.7 °F 43.3 °F 85% 29.37 in 10.0 mi WSW 13.8 mph 26.5 mph N/A   Overcast
9:34 AM 47.8 °F 43.5 °F 85% 29.39 in 10.0 mi WSW 12.7 mph 23.0 mph N/A   Overcast
9:53 AM 47.7 °F 43.5 °F 86% 29.41 in 10.0 mi WSW 13.8 mph 21.9 mph N/A   Overcast
10:13 AM 47.3 °F 43.9 °F 88% 29.42 in 7.0 mi WSW 12.7 mph 20.7 mph N/A   Overcast
10:34 AM 47.7 °F 43.5 °F 86% 29.43 in 10.0 mi WSW 16.1 mph 21.9 mph N/A   Overcast
10:53 AM 48.2 °F 43.7 °F 84% 29.44 in 10.0 mi SW 13.8 mph 20.7 mph N/A   Overcast
11:13 AM 48.2 °F 43.5 °F 84% 29.44 in 10.0 mi WSW 15.0 mph 21.9 mph N/A   Overcast
11:34 AM 48.7 °F 43.5 °F 82% 29.45 in 10.0 mi WSW 15.0 mph 23.0 mph N/A   Overcast
11:53 AM 48.9 °F 43.7 °F 82% 29.46 in 10.0 mi WSW 16.1 mph 25.3 mph N/A   Overcast
12:13 PM 48.6 °F 44.1 °F 84% 29.46 in 10.0 mi WSW 13.8 mph 17.3 mph N/A   Drizzle
12:34 PM 49.1 °F 44.8 °F 85% 29.47 in 10.0 mi WSW 10.4 mph 18.4 mph N/A   Light Drizzle
12:53 PM 49.1 °F 43.9 °F 82% 29.47 in 10.0 mi WSW 13.8 mph 20.7 mph N/A   Overcast
1:13 PM 49.5 °F 43.7 °F 81% 29.48 in 10.0 mi WSW 11.5 mph 18.4 mph N/A   Overcast
1:34 PM 50.7 °F 43.7 °F 77% 29.48 in 10.0 mi SW 10.4 mph - N/A   Overcast
1:53 PM 50.0 °F 43.5 °F 78% 29.49 in 10.0 mi WSW 11.5 mph - N/A   Overcast
2:14 PM 49.5 °F 43.3 °F 79% 29.49 in 10.0 mi SW 11.5 mph 18.4 mph N/A   Overcast
2:34 PM 49.1 °F 43.2 °F 80% 29.50 in 10.0 mi WSW 8.1 mph - N/A   Overcast
2:53 PM 49.1 °F 42.8 °F 79% 29.51 in 10.0 mi SW 11.5 mph 18.4 mph N/A   Overcast
3:14 PM 49.1 °F 43.2 °F 80% 29.52 in 10.0 mi WSW 9.2 mph - N/A   Overcast
3:34 PM 49.1 °F 43.2 °F 80% 29.52 in 10.0 mi WSW 10.4 mph 16.1 mph N/A   Overcast
3:53 PM 48.9 °F 43.7 °F 82% 29.53 in 10.0 mi SW 8.1 mph 16.1 mph N/A Rain Light Rain
4:14 PM 49.1 °F 43.3 °F 81% 29.54 in 10.0 mi WSW 5.8 mph - N/A   Overcast
4:34 PM 49.1 °F 42.8 °F 79% 29.54 in 10.0 mi WSW 10.4 mph - N/A   Overcast
4:53 PM 49.1 °F 43.2 °F 80% 29.55 in 10.0 mi SSW 11.5 mph - N/A   Overcast
5:14 PM 49.1 °F 43.3 °F 81% 29.56 in 10.0 mi WSW 9.2 mph - N/A   Overcast
5:33 PM 48.2 °F 43.7 °F 84% 29.56 in 10.0 mi SW 10.4 mph - N/A   Light Drizzle
5:54 PM 47.7 °F 44.2 °F 88% 29.57 in 4.0 mi SW 5.8 mph - N/A   Drizzle
6:14 PM 47.3 °F 46.0 °F 95% 29.57 in 5.0 mi SW 4.6 mph - N/A   Light Drizzle
6:33 PM 46.9 °F 45.9 °F 96% 29.57 in 7.0 mi SW 4.6 mph - N/A   Overcast
6:54 PM 47.1 °F 46.2 °F 97% 29.58 in 10.0 mi SW 5.8 mph - N/A   Overcast
7:13 PM 47.1 °F 46.2 °F 97% 29.59 in 10.0 mi SW 4.6 mph - N/A   Overcast
7:33 PM 47.3 °F 46.0 °F 95% 29.59 in 10.0 mi SW 3.5 mph - N/A   Overcast
7:54 PM 47.3 °F 45.9 °F 95% 29.60 in 10.0 mi SW 3.5 mph - N/A   Overcast
8:13 PM 47.3 °F 45.9 °F 95% 29.60 in 10.0 mi SW 5.8 mph - N/A   Overcast
8:34 PM 47.3 °F 46.2 °F 96% 29.61 in 4.0 mi WSW 3.5 mph - N/A   Overcast
8:53 PM 46.6 °F 45.9 °F 97% 29.61 in 4.0 mi Calm Calm - N/A   Overcast
9:13 PM 46.9 °F 46.2 °F 97% 29.61 in 4.0 mi SW 3.5 mph - N/A   Overcast
9:34 PM 47.3 °F 46.4 °F 97% 29.61 in 7.0 mi SW 5.8 mph - N/A   Overcast
9:53 PM 47.1 °F 46.4 °F 97% 29.61 in 5.0 mi WSW 4.6 mph - N/A   Drizzle
10:14 PM 47.3 °F 46.6 °F 97% 29.62 in 7.0 mi West 4.6 mph - N/A   Light Drizzle
10:34 PM 47.3 °F 46.6 °F 97% 29.62 in 5.0 mi WSW 3.5 mph - N/A   Drizzle
10:53 PM 47.3 °F 46.6 °F 97% 29.63 in 10.0 mi WSW 3.5 mph - N/A   Drizzle
11:14 PM 47.3 °F 46.8 °F 98% 29.63 in 10.0 mi West 3.5 mph - N/A   Drizzle
11:33 PM 47.3 °F 46.8 °F 98% 29.63 in 10.0 mi WNW 3.5 mph - N/A   Drizzle
11:54 PM 47.3 °F 46.6 °F 97% 29.63 in 10.0 mi Calm Calm - N/A Rain Light Rain